Location: Newark
(25.5428°S, 54.5819°W)
Time: 19:45:03
(UTC+00:00)

Envisat - Pass Details

Date: 27 July 2019
Orbit: 764 x 766 km, 98.1° (Epoch: 17 August)

Event Time Altitude Azimuth Distance (km) Brightness Sun altitude
Rises 09:09:16 0° 46° (NE) 3,219 7.3 -15.9°
Reaches altitude 10° 09:12:04 10° 62° (ENE) 2,302 6.7 -15.3°
Maximum altitude 09:15:47 21° 109° (ESE) 1,686 5.5 -14.5°
Drops below altitude 10° 09:19:31 10° 156° (SSE) 2,322 5.6 -13.7°
Sets 09:22:21 0° 172° (S) 3,256 6.2 -13.0°
